Location: Praha
(50.0830°N, 14.4670°E)
Time: 18:54:50
(UTC+02:00)

ISS - Pass Details

Date: 05 September 2024
Orbit: 414 x 424 km, 51.6° (Epoch: 16 September)

Event Time Altitude Azimuth Distance (km) Brightness Sun altitude
Exits shadow 03:03:22 13° 86° (E) 1,340 -0.8 -27.3°
Drops below altitude 10° 03:03:44 11° 87° (E) 1,485 -0.6 -27.3°
Sets 03:05:56 0° 90° (E) 2,388 0.5 -27.1°
